Simultaneous Nadir Overpasses (SNOs) Predictions

Prediction of SNOs between GOES-15 and TERRA Satellite Orbit:

Table of predicted SNOs for the next 14.0 days since TLE Epoch: 7/14/2017
Index Date Time (GOES-15) GOES-15 Lat,Lon TERRA Lat,Lon Distance(km) Time Diff (sec)
1 07/15/2017 19:19:08 -0.04,-135.28 -0.60,-132.60 304.23 80
2 07/16/2017 07:43:12 0.01,-135.20 -0.53,-137.78 294.06 80
3 07/18/2017 07:28:22 0.02,-135.15 0.10,-134.84 35.75 80
4 07/20/2017 07:16:11 0.02,-135.09 0.68,-131.87 364.70 80
5 07/20/2017 19:40:07 0.01,-135.13 0.41,-137.03 215.86 80
6 07/22/2017 19:25:17 -0.00,-135.07 -0.23,-134.08 112.26 80
7 07/23/2017 07:49:20 -0.03,-134.99 -0.96,-139.26 486.30 80
8 07/24/2017 19:13:06 -0.01,-135.00 -0.81,-131.12 440.05 80
9 07/25/2017 07:37:10 -0.02,-134.91 -0.31,-136.31 158.58 80
10 07/27/2017 07:22:19 -0.01,-134.84 0.28,-133.35 168.97 80
11 07/27/2017 19:46:15 0.04,-134.89 0.82,-138.51 412.17 80




NCC Satellite Simultaneous Nadir Overpasses (SNOs) Prediction Service
